Location: Santa Cristina
(46.5667°N, 11.7167°E)
Time: 17:53:17
(UTC+00:00)

ARGOS Delta rocket - Pass Details

Date: 21 April 2021
Orbit: 634 x 839 km, 96.5° (Epoch: 11 May)

Event Time Altitude Azimuth Distance (km) Brightness Sun altitude
Rises 01:27:01 0° 14° (NNE) 2,965 8.2 -24.2°
Reaches altitude 10° 01:29:16 10° 17° (NNE) 2,039 7.1 -23.9°
Maximum altitude 01:33:39 63° 99° (E) 709 3.8 -23.5°
Enters shadow 01:34:20 55° 144° (SE) 769 3.8 -23.4°
